User: anonymous   Login
Location: Unspecified
(0.0000°N, 0.0000°E)
Time: 17:03:09
(UTC+00:00)
Language:

Nadezhda 6 - Orbit

View from above orbital plane
View from above orbital plane
View from above satellite
View from above satellite

Ground track
Ground track

The orbit data is extracted from the following two-line orbital elements,

1 26384U 00033A   18175.19174990  .00000067  00000-0  20725-4 0  9994
2 26384  97.9665 236.3607 0014133 294.9497  65.0248 14.66435016961322
Epoch (UTC): 24 June 2018 04:36:07
Eccentricity: 0.0014133
inclination: 97.9665°
perigee height: 662 km
apogee height: 682 km
right ascension of ascending node: 236.3607°
argument of perigee: 294.9497°
revolutions per day: 14.66435016
mean anomaly at epoch: 65.0248°
orbit number at epoch: 96132

The dashed part of the orbit path shows where the satellite is in the earth's shadow,  

DLR